Regional Weather Roundup
Issued by NWS Albany, NY

Home | Current Version | Previous Version | Text Only | Print | Product List | Glossary On
Versions: 1 2 3 4 5 6 7 8 9 10 11 12 13 14 15 16 17 18 19 20 21 22 23 24 25 26 27
000
ASUS41 KALY 260710
RWRALY

NEW YORK STATE HOURLY WEATHER ROUNDUP
NATIONAL WEATHER SERVICE ALBANY NY
300 AM EDT THU MAY 26 2016

NOTE: "FAIR" INDICATES FEW OR NO CLOUDS BELOW 12,000 FEET WITH NO
SIGNIFICANT WEATHER AND/OR NO OBSTRUCTIONS TO VISIBILITY.

NYZ032-033-038>043-046>054-057>066-NYZ062>081-082-084-260800-
EAST


CITY           SKY/WX    TMP DP  RH WIND       PRES   REMARKS
ALBANY         CLOUDY    60  53  77 CALM      30.05S
GLENS FALLS    PTCLDY    56  52  86 CALM      30.05S
POUGHKEEPSIE   CLOUDY    60  56  86 CALM      30.06R
NEWBURGH       CLEAR     66  54  63 CALM      30.07S
MONTGOMERY     CLOUDY    59  54  83 S3        30.06S
WHITE PLAINS   CLOUDY    67  50  54 NW5       30.06R
ISLIP          CLOUDY    63  54  72 SW3       30.06R
NEW YORK CITY  PTCLDY    77  54  44 W5        30.06R
CENTRAL PARK   CLOUDY    73  47  39 W5        30.09S
$$

NYZ005>009-017-018-044>046-055-056-260800-
CENTRAL


CITY           SKY/WX    TMP DP  RH WIND       PRES   REMARKS
FULTON         CLOUDY    61  55  81 CALM      30.05S
SYRACUSE       CLOUDY    61  55  81 CALM      30.05R
ROME           CLEAR     57  54  89 CALM      30.07R
ELMIRA         MOCLDY    55  51  86 CALM      30.10S
BINGHAMTON     CLEAR     64  51  62 CALM      30.11S
MONTICELLO     PTCLDY    57  54  88 CALM      30.13R
$$

NYZ026>034-041>043-087-260800-
NORTH


CITY           SKY/WX    TMP DP  RH WIND       PRES   REMARKS
WATERTOWN      CLOUDY    55  51  86 NE7       30.05R
FORT DRUM      NOT AVBL
MASSENA        CLOUDY    54  50  86 CALM      30.09R
SARANAC LAKE   PTCLDY    46  45  96 NE3       30.09R FOG
PLATTSBURGH    CLOUDY    56  52  86 CALM      30.07R
$$

NYZ001>004-010>016-019>021-085-260800-
WEST


CITY           SKY/WX    TMP DP  RH WIND       PRES   REMARKS
NIAGARA FALLS  PTCLDY    64  51  62 S3        30.05F
BUFFALO        PTCLDY    63  51  65 SE3       30.06S
DUNKIRK        CLOUDY    70  53  54 S9        30.06S
JAMESTOWN      PTCLDY    63  52  67 S3        30.11F
WELLSVILLE     PTCLDY    59  51  75 CALM      30.15S
ROCHESTER      MOCLDY    63  52  67 SW7       30.06S
PENN YAN       PTCLDY    64  53  67 SW7       30.09S
$$

             KEY
       WCI = WIND CHILL INDEX
       VSB = VISIBILITY
       HX  = HEAT INDEX
$$




USA.gov is the U.S. government's official web portal to all federal, state and local government web resources and services.